Location: Bittkow
(50.3000°N, 19.0000°E)
Time: 23:28:20
(UTC+00:00)

Intercosmos 25 - Pass Details

Date: 19 September 2020
Orbit: 440 x 2875 km, 82.6° (Epoch: 30 October)

Event Time Altitude Azimuth Distance (km) Brightness Sun altitude
Rises 03:38:15 0° 177° (S) 3,206 7.1 -8.4°
Reaches altitude 10° 03:40:57 10° 173° (S) 2,026 6.2 -8.0°
Maximum altitude 03:44:59 51° 98° (E) 649 4.2 -7.4°
Drops below altitude 10° 03:48:11 10° 20° (NNE) 1,599 6.1 -6.9°
Sets 03:50:06 0° 15° (NNE) 2,446 7.0 -6.6°
